STARLINK-30328 (57638 NORAD) Tracking and Keplerian Element Data

This shows tracking and keplerian element data for the satellite.

Feedback or suggestion? Click here.




ElementValue
Catalog57638
NameSTARLINK-30328
Epoch Orbit2400
Epoch Day13.09810384
Epoch Year2024
RAAN35.4829
Inclination43.0019
Eccentricity0.0001401
Argument of Perigee236.1946
Mean Anonmoly123.8763
Mean Motion15.02526213
Decay Rate0.00013735
L11 57638U 23122G 24013.09810384 .00013735 00000+0 10301-2 0 9997
L22 57638 43.0019 35.4829 0001401 236.1946 123.8763 15.02526213 24009



Live tracking and technical data element details for STARLINK-30328 (NORAD 57638). STARLINK-30328 can be tracked NOW for your location showing map with azimuth and elevation plus other details from your city location.







IsCatalogInMostPopularTable: catalog: 57638, numindb: 27
Update: records affected: 1



GetName: 57638 STARLINK-30328

Hit Count: updated at: Thu, 22 Feb 2024 01:58:00 GMT